This is the latest recevied weather packets stored in our database for station/object KF4WSW-13. If no packets are shown the sender has not sent any weather packets the latest 10 day(s).
| Time | Temp. | Humidity | Pressure | Rain* | Wind** | Luminosity | Snow |
|---|---|---|---|---|---|---|---|
| 1777983751 | 21.67° C | 82% | 1013.9 hPa | 0 mm | - | 207 W/m² | - |
| 1777983448 | 21.11° C | 83% | 1013.7 hPa | 0 mm | - | 165 W/m² | - |
| 1777983144 | 21.11° C | 85% | 1013.9 hPa | 0 mm | - | 153 W/m² | - |
| 1777982841 | 20.56° C | 86% | 1014 hPa | 0 mm | - | 128 W/m² | - |
| 1777982537 | 20.56° C | 86% | 1014 hPa | 0 mm | - | 124 W/m² | - |
| 1777982235 | 20° C | 87% | 1013.8 hPa | 0 mm | - | 106 W/m² | - |
| 1777981934 | 20° C | 87% | 1013.8 hPa | 0 mm | - | 75 W/m² | - |
| 1777981631 | 20° C | 87% | 1014.2 hPa | 0 mm | - | 82 W/m² | - |
| 1777981326 | 20° C | 87% | 1013.9 hPa | 0 mm | - | 74 W/m² | - |
| 1777981023 | 20° C | 87% | 1014 hPa | 0 mm | - | 63 W/m² | - |
| 1777980720 | 20° C | 88% | 1013.7 hPa | 0 mm | - | 52 W/m² | - |
| 1777980416 | 20° C | 88% | 1013.5 hPa | 0 mm | - | 41 W/m² | - |
| 1777980114 | 20° C | 89% | 1013.6 hPa | 0 mm | - | 32 W/m² | - |
| 1777979813 | 20° C | 89% | 1013.5 hPa | 0 mm | - | 22 W/m² | - |
| 1777979510 | 20° C | 89% | 1013.2 hPa | 0 mm | - | 16 W/m² | - |
| 1777979206 | 20° C | 89% | 1013.2 hPa | 0 mm | - | 13 W/m² | - |
| 1777978903 | 20° C | 89% | 1013 hPa | 0 mm | - | 10 W/m² | - |
| 1777978600 | 20° C | 88% | 1012.9 hPa | 0 mm | - | 7 W/m² | - |
| 1777978296 | 19.44° C | 89% | 1013 hPa | 0 mm | - | 5 W/m² | - |
| 1777977993 | 20° C | 88% | 1012.8 hPa | 0 mm | - | 2 W/m² | - |
| 1777977691 | 20° C | 88% | 1012.9 hPa | 0 mm | - | 1 W/m² | - |
| 1777977386 | 20° C | 88% | 1012.9 hPa | 0 mm | - | 0 W/m² | - |
| 1777977084 | 19.44° C | 88% | 1013.1 hPa | 0 mm | - | 0 W/m² | - |
| 1777976781 | 20° C | 88% | 1012.8 hPa | 0 mm | - | 0 W/m² | - |
| 1777976479 | 20° C | 88% | 1012.8 hPa | 0 mm | - | 0 W/m² | - |
* Rain latest hour (hover to see other rain measurements)
** Current wind speed in m/s (hover to see current wind gust speed)